Regional Weather Roundup
Issued by NWS Little Rock, AR

Home | Current Version | Previous Version | Graphics & Text | Print | Product List | Glossary On
Versions: 1 2 3 4 5 6 7 8 9 10 11 12 13 14 15 16 17 18 19 20 21 22 23 24 25 26 27 28 29 30 31 32 33 34 35 36 37 38 39 40 41 42 43 44 45 46 47 48 49 50
291
ASUS44 KLZK 241905
RWRLZK

WEATHER ROUNDUP FOR ARKANSAS
NATIONAL WEATHER SERVICE LITTLE ROCK AR
100 PM CST TUE JAN 24 2017

NOTE: "FAIR" INDICATES FEW OR NO CLOUDS BELOW 12,000 FEET WITH NO
SIGNIFICANT WEATHER AND/OR OBSTRUCTIONS TO VISIBILITY.

ARZ001-003-010-029-242000-
NORTHWEST ARKANSAS

CITY           SKY/WX    TMP DP  RH WIND       PRES   REMARKS
FAYETTEVILLE   SUNNY     65  37  35 S20G31    29.61F
FORT SMITH     SUNNY     70  36  28 SE9       29.63F
HARRISON       SUNNY     65  36  34 S17G23    29.66F
BENTONVILLE    SUNNY    N/A N/A N/A S17G28    29.59F
ROGERS         SUNNY     68  37  32 S20G30    29.58F
SILOAM SPGS    SUNNY     66  36  32 S26G33    29.58F
HIGHFILL       SUNNY     68  36  30 S22G31    29.58F
SPRINGDALE     SUNNY     68  36  30 S18G28    29.62F
$$

ARZ004-005-016-242000-
NORTH CENTRAL ARKANSAS

CITY           SKY/WX    TMP DP  RH WIND       PRES   REMARKS
BATESVILLE     SUNNY     61  41  48 SE10G22   29.79F
FLIPPIN        SUNNY     61  36  39 S14G23    29.67F
MTN HOME       SUNNY     59  37  44 S18G26    29.69F
$$

ARZ040-041-242000-
WEST CENTRAL ARKANSAS

CITY           SKY/WX    TMP DP  RH WIND       PRES   REMARKS
MENA           MOSUNNY   68  43  40 SW8       29.69F
MOUNT IDA      SUNNY     67  39  35 S8        29.70F
$$

ARZ009-017-025-026-028-242000-
NORTHEAST ARKANSAS

CITY           SKY/WX    TMP DP  RH WIND       PRES   REMARKS
CORNING        FAIR      54  41  62 SE12      29.84F
JONESBORO      SUNNY     55  42  61 S14       29.84F
NEWPORT        SUNNY     56  45  66 SE17      29.82F
WALNUT RIDGE   SUNNY     55  39  54 S13       29.83F
BLYTHEVILLE    SUNNY     54  39  57 S10       29.87F
NW BLYTHEVILLE SUNNY     54  41  62 SE9       29.86F
$$

ARZ022-023-033-042-044-242000-
CENTRAL ARKANSAS

CITY           SKY/WX    TMP DP  RH WIND       PRES   REMARKS
LITTLE ROCK    MOSUNNY   62  44  51 SE10      29.78F
N LITTLE ROCK    N/A     60  44  56 S13       29.80F
JACKSONVILLE   SUNNY     60  46  61 SE13G21   29.78F
SEARCY         SUNNY     60  44  55 SE14      29.81F
HOT SPRINGS    SUNNY     65  41  41 S14G20    29.75F
RUSSELLVILLE   SUNNY     64  39  39 SE8       29.71F
CLINTON        FAIR      61  41  48 S8G16     29.76F
$$

ARZ036-242000-
EAST ARKANSAS

CITY           SKY/WX    TMP DP  RH WIND       PRES   REMARKS
WEST MEMPHIS   SUNNY     57  43  59 S9        29.85F
$$

ARZ050-053-066-070-073-242000-
SOUTHWEST ARKANSAS

CITY           SKY/WX    TMP DP  RH WIND       PRES   REMARKS
ARKADELPHIA    FAIR      66  46  48 S9G20     29.76F
CAMDEN         SUNNY     70  39  32 S8        29.78F
TEXARKANA      SUNNY     69  47  45 S10G18    29.73F
EL DORADO      SUNNY     68  45  43 S13G20    29.79F
DE QUEEN       MOSUNNY   67  47  48 S9G16     29.69F
$$

ARZ056-057-069-242000-
SOUTHEAST ARKANSAS

CITY           SKY/WX    TMP DP  RH WIND       PRES   REMARKS
PINE BLUFF     SUNNY     65  43  44 S13       29.80F
STUTTGART      SUNNY     61  41  48 SE14G20   29.83F
MONTICELLO     SUNNY     64  42  44 SE12      29.83F

$$






USA.gov is the U.S. government's official web portal to all federal, state and local government web resources and services.